• In Netherlands
  • List of Countries
  • For 7 days
  • Water Temperature
  • Satellite Maps
  • Weather Map
  • Weather Widgets
  • user-avatar
    Login

    Hourly Weather Dobrich

    Today, 26 May, Friday

    Time Temperature Precipitation Wind Pressure Humidity
    00:00 +10°C° 0 mm 2 mps 738 mmHg 95%
    01:00 +10°C° 0 mm 2 mps 738 mmHg 95%
    02:00 +10°C° 0 mm 2 mps 738 mmHg 95%
    03:00 +10°C° 0 mm 2 mps 737 mmHg 95%
    04:00 +10°C° 0 mm 2 mps 737 mmHg 95%
    05:00 +10°C° 0 mm 2 mps 737 mmHg 95%
    06:00 +12°C° 0 mm 2 mps 738 mmHg 91%
    07:00 +14°C° 0 mm 2 mps 738 mmHg 86%
    08:00 +14°C° 0 mm 3 mps 738 mmHg 81%
    09:00 +17°C° 0 mm 3 mps 738 mmHg 76%
    10:00 +18°C° 0 mm 3 mps 738 mmHg 71%
    11:00 +19°C° 0 mm 3 mps 739 mmHg 65%
    12:00 +19°C° 0.1 mm 3 mps 738 mmHg 64%
    13:00 +20°C° 0.1 mm 4 mps 738 mmHg 63%
    14:00 +20°C° 0.1 mm 4 mps 738 mmHg 62%
    15:00 +20°C° 0.1 mm 4 mps 737 mmHg 65%
    16:00 +19°C° 0.1 mm 4 mps 737 mmHg 67%
    17:00 +19°C° 0.1 mm 4 mps 737 mmHg 70%
    18:00 +17°C° 0 mm 3 mps 737 mmHg 77%
    19:00 +14°C° 0 mm 3 mps 737 mmHg 84%
    20:00 +12°C° 0 mm 3 mps 737 mmHg 92%
    21:00 +12°C° 0 mm 2 mps 737 mmHg 93%
    22:00 +12°C° 0 mm 2 mps 737 mmHg 93%
    23:00 +10°C° 0 mm 2 mps 738 mmHg 94%

    Tomorrow, 27 May, Saturday

    Time Temperature Precipitation Wind Pressure Humidity
    00:00 +11°C° 0 mm 1 mps 738 mmHg 94%
    01:00 +10°C° 0 mm 1 mps 737 mmHg 94%
    02:00 +10°C° 0 mm 1 mps 737 mmHg 94%
    03:00 +10°C° 0 mm 1 mps 737 mmHg 94%
    04:00 +10°C° 0 mm 1 mps 737 mmHg 93%
    05:00 +10°C° 0 mm 1 mps 737 mmHg 93%
    06:00 +12°C° 0 mm 2 mps 738 mmHg 86%
    07:00 +14°C° 0 mm 2 mps 738 mmHg 79%
    08:00 +16°C° 0 mm 2 mps 738 mmHg 71%
    09:00 +17°C° 0.1 mm 2 mps 739 mmHg 67%
    10:00 +18°C° 0.1 mm 3 mps 739 mmHg 63%
    11:00 +19°C° 0.1 mm 3 mps 739 mmHg 58%
    12:00 +19°C° 0.3 mm 3 mps 739 mmHg 62%
    13:00 +19°C° 0.3 mm 3 mps 739 mmHg 66%
    14:00 +18°C° 0.3 mm 4 mps 739 mmHg 70%
    15:00 +18°C° 0.3 mm 3 mps 739 mmHg 73%
    16:00 +18°C° 0.3 mm 3 mps 739 mmHg 75%
    17:00 +17°C° 0.3 mm 3 mps 739 mmHg 77%
    18:00 +16°C° 0 mm 3 mps 739 mmHg 81%
    19:00 +14°C° 0 mm 3 mps 740 mmHg 85%
    20:00 +14°C° 0 mm 2 mps 740 mmHg 89%
    21:00 +14°C° 0.1 mm 2 mps 740 mmHg 89%
    22:00 +14°C° 0.1 mm 2 mps 740 mmHg 89%
    23:00 +13°C° 0.1 mm 3 mps 741 mmHg 89%

    Day after tomorrow, 28 May, Sunday

    Time Temperature Precipitation Wind Pressure Humidity
    00:00 +12°C° 0 mm 3 mps 741 mmHg 90%
    01:00 +12°C° 0 mm 3 mps 741 mmHg 91%
    02:00 +12°C° 0 mm 4 mps 741 mmHg 91%
    03:00 +11°C° 0 mm 4 mps 741 mmHg 92%
    04:00 +11°C° 0 mm 4 mps 741 mmHg 93%
    05:00 +11°C° 0 mm 4 mps 741 mmHg 94%
    06:00 +12°C° 0 mm 4 mps 742 mmHg 90%
    07:00 +14°C° 0 mm 5 mps 742 mmHg 85%
    08:00 +15°C° 0 mm 5 mps 743 mmHg 81%
    09:00 +17°C° 0.4 mm 5 mps 743 mmHg 75%
    10:00 +19°C° 0.4 mm 6 mps 743 mmHg 69%
    11:00 +20°C° 0.4 mm 6 mps 744 mmHg 64%
    12:00 +21°C° 0.4 mm 6 mps 744 mmHg 61%
    13:00 +21°C° 0.4 mm 6 mps 744 mmHg 59%
    14:00 +21°C° 0.4 mm 6 mps 744 mmHg 56%
    15:00 +21°C° 0.1 mm 6 mps 744 mmHg 56%
    16:00 +21°C° 0.1 mm 5 mps 744 mmHg 56%
    17:00 +21°C° 0.1 mm 5 mps 744 mmHg 57%
    18:00 +18°C° 0 mm 4 mps 744 mmHg 64%
    19:00 +16°C° 0 mm 3 mps 744 mmHg 71%
    20:00 +14°C° 0 mm 2 mps 744 mmHg 78%
    21:00 +13°C° 0 mm 2 mps 744 mmHg 79%
    22:00 +12°C° 0 mm 2 mps 744 mmHg 79%
    23:00 +10°C° 0 mm 2 mps 745 mmHg 79%

    29 May, Monday

    Time Temperature Precipitation Wind Pressure Humidity
    00:00 +12°C° 0 mm 2 mps 745 mmHg 77%
    01:00 +12°C° 0 mm 2 mps 744 mmHg 75%
    02:00 +12°C° 0 mm 2 mps 744 mmHg 74%
    03:00 +11°C° 0 mm 3 mps 744 mmHg 75%
    04:00 +11°C° 0 mm 3 mps 744 mmHg 76%
    05:00 +11°C° 0 mm 3 mps 744 mmHg 77%
    06:00 +13°C° 0 mm 3 mps 744 mmHg 73%
    07:00 +17°C° 0 mm 3 mps 745 mmHg 69%
    08:00 +19°C° 0 mm 4 mps 745 mmHg 64%
    09:00 +20°C° 0 mm 4 mps 745 mmHg 60%
    10:00 +21°C° 0 mm 4 mps 745 mmHg 55%
    11:00 +23°C° 0 mm 4 mps 745 mmHg 51%
    12:00 +23°C° 0 mm 4 mps 745 mmHg 50%
    13:00 +23°C° 0 mm 4 mps 744 mmHg 50%
    14:00 +23°C° 0 mm 4 mps 744 mmHg 50%
    15:00 +22°C° 0 mm 4 mps 744 mmHg 52%
    16:00 +22°C° 0 mm 4 mps 743 mmHg 54%
    17:00 +21°C° 0 mm 4 mps 743 mmHg 57%
    18:00 +19°C° 0 mm 3 mps 743 mmHg 66%
    19:00 +17°C° 0 mm 3 mps 742 mmHg 75%
    20:00 +14°C° 0 mm 2 mps 742 mmHg 84%
    21:00 +13°C° 0 mm 2 mps 742 mmHg 85%
    22:00 +12°C° 0 mm 2 mps 742 mmHg 86%
    23:00 +12°C° 0 mm 2 mps 742 mmHg 87%

    30 May, Tuesday

    Time Temperature Precipitation Wind Pressure Humidity
    00:00 +11°C° 0 mm 1 mps 742 mmHg 87%
    01:00 +11°C° 0 mm 1 mps 741 mmHg 87%
    02:00 +10°C° 0 mm 1 mps 741 mmHg 88%
    03:00 +10°C° 0 mm 1 mps 741 mmHg 87%
    04:00 +11°C° 0 mm 1 mps 740 mmHg 87%
    05:00 +11°C° 0 mm 1 mps 740 mmHg 87%
    06:00 +13°C° 0 mm 1 mps 740 mmHg 78%
    07:00 +16°C° 0 mm 1 mps 741 mmHg 69%
    08:00 +20°C° 0 mm 1 mps 741 mmHg 61%
    09:00 +22°C° 0 mm 1 mps 741 mmHg 58%
    10:00 +23°C° 0 mm 1 mps 741 mmHg 55%
    11:00 +24°C° 0 mm 1 mps 741 mmHg 52%
    12:00 +25°C° 0 mm 1 mps 741 mmHg 51%
    13:00 +25°C° 0 mm 2 mps 740 mmHg 51%
    14:00 +25°C° 0 mm 2 mps 740 mmHg 50%
    15:00 +25°C° 0 mm 2 mps 740 mmHg 52%
    16:00 +24°C° 0 mm 2 mps 740 mmHg 54%
    17:00 +24°C° 0 mm 2 mps 739 mmHg 56%
    18:00 +21°C° 0 mm 2 mps 739 mmHg 64%
    19:00 +18°C° 0 mm 2 mps 739 mmHg 71%
    20:00 +16°C° 0 mm 3 mps 739 mmHg 79%
    21:00 +16°C° 0 mm 2 mps 739 mmHg 80%
    22:00 +15°C° 0 mm 2 mps 739 mmHg 81%
    23:00 +14°C° 0 mm 2 mps 739 mmHg 82%

    31 May, Wednesday

    Time Temperature Precipitation Wind Pressure Humidity
    00:00 +14°C° 0 mm 2 mps 739 mmHg 82%
    01:00 +14°C° 0 mm 2 mps 739 mmHg 82%
    02:00 +14°C° 0 mm 2 mps 738 mmHg 83%
    03:00 +15°C° 0 mm 2 mps 738 mmHg 82%
    04:00 +15°C° 0 mm 2 mps 738 mmHg 82%
    05:00 +15°C° 0 mm 2 mps 738 mmHg 81%
    06:00 +17°C° 0 mm 3 mps 738 mmHg 75%
    07:00 +20°C° 0 mm 3 mps 739 mmHg 69%
    08:00 +22°C° 0 mm 3 mps 739 mmHg 63%
    09:00 +24°C° 0.1 mm 3 mps 739 mmHg 59%
    10:00 +26°C° 0.1 mm 3 mps 739 mmHg 55%
    11:00 +27°C° 0.1 mm 3 mps 739 mmHg 51%
    12:00 +28°C° 0.2 mm 3 mps 739 mmHg 50%
    13:00 +28°C° 0.2 mm 3 mps 739 mmHg 49%
    14:00 +28°C° 0.2 mm 3 mps 738 mmHg 48%
    15:00 +28°C° 0.5 mm 3 mps 738 mmHg 51%
    16:00 +28°C° 0.5 mm 3 mps 738 mmHg 53%
    17:00 +28°C° 0.5 mm 3 mps 738 mmHg 56%
    18:00 +26°C° 0.3 mm 2 mps 738 mmHg 62%
    19:00 +23°C° 0.3 mm 2 mps 738 mmHg 68%
    20:00 +20°C° 0.3 mm 2 mps 738 mmHg 74%
    21:00 +20°C° 0.3 mm 2 mps 738 mmHg 75%
    22:00 +20°C° 0.3 mm 2 mps 738 mmHg 76%
    23:00 +19°C° 0.3 mm 3 mps 738 mmHg 77%
    Show more